User: anonymous   Login
Location: Huntington Beach
(33.6600°N, 117.9980°W)
Time: 12:14:16
(UTC-07:00)
Language:

SL-16 R/B - Orbit

View from above orbital plane
View from above orbital plane
View from above satellite
View from above satellite

Ground track
Ground track

The orbit data is extracted from the following two-line orbital elements,

1 28353U 04021B   14296.16229648  .00000390  00000-0  22982-3 0  8670
2 28353 071.0011 308.4416 0006643 242.5731 180.6837 14.14091172535312
Epoch (UTC): 23 October 2014 03:53:42
Eccentricity: 0.0006643
inclination: 71.0011°
perigee height: 840 km
apogee height: 850 km
right ascension of ascending node: 308.4416°
argument of perigee: 242.5731°
revolutions per day: 14.14091172
mean anomaly at epoch: 180.6837°
orbit number at epoch: 53531

The dashed part of the orbit path shows where the satellite is in the earth's shadow,  

DLR